When you browse on this site, cookies collect data to enhance your experience and personalize the content and advertising you see.
Visit our Privacy Policy to learn more. By continuing to use the site, you agree to this use of cookies and data.
  • în România
  • Lista ţărilor
  • Pe 7 zile
  • Temperatura apei
  • Hartă satelitară
  • Meteo pe hartă
  • Widget-uri
  • user-avatar
    Intrare

    Meteo pe oră la Maracay

    Astăzi, 18 Decembrie, Marţi

    Timp Temperatura Precipitaţii Vânt Presiune Umiditate
    00:00 +21°C° 0 mm 2 m/s 712 mmHg 87%
    01:00 +21°C° 0 mm 2 m/s 712 mmHg 88%
    02:00 +21°C° 0 mm 2 m/s 712 mmHg 89%
    03:00 +21°C° 0 mm 2 m/s 712 mmHg 89%
    04:00 +21°C° 0 mm 2 m/s 712 mmHg 90%
    05:00 +21°C° 0 mm 2 m/s 713 mmHg 87%
    06:00 +23°C° 0 mm 1 m/s 713 mmHg 83%
    07:00 +23°C° 0 mm 1 m/s 713 mmHg 80%
    08:00 +26°C° 0 mm 2 m/s 714 mmHg 71%
    09:00 +28°C° 0 mm 2 m/s 714 mmHg 62%
    10:00 +30°C° 0 mm 2 m/s 714 mmHg 53%
    11:00 +30°C° 0 mm 2 m/s 714 mmHg 51%
    12:00 +31°C° 0 mm 2 m/s 713 mmHg 49%
    13:00 +31°C° 0 mm 3 m/s 712 mmHg 48%
    14:00 +31°C° 0 mm 3 m/s 712 mmHg 51%
    15:00 +30°C° 0 mm 2 m/s 711 mmHg 55%
    16:00 +29°C° 0 mm 2 m/s 711 mmHg 58%
    17:00 +27°C° 0 mm 2 m/s 711 mmHg 66%
    18:00 +26°C° 0 mm 2 m/s 711 mmHg 74%
    19:00 +24°C° 0 mm 2 m/s 711 mmHg 82%
    20:00 +24°C° 0 mm 2 m/s 712 mmHg 84%
    21:00 +23°C° 0 mm 2 m/s 712 mmHg 87%
    22:00 +23°C° 0 mm 2 m/s 712 mmHg 89%
    23:00 +23°C° 0 mm 2 m/s 712 mmHg 90%

    Mâine, 19 Decembrie, Miercuri

    Timp Temperatura Precipitaţii Vânt Presiune Umiditate
    00:00 +21°C° 0 mm 2 m/s 712 mmHg 91%
    01:00 +21°C° 0 mm 2 m/s 712 mmHg 91%
    02:00 +21°C° 0 mm 2 m/s 712 mmHg 91%
    03:00 +21°C° 0 mm 2 m/s 712 mmHg 91%
    04:00 +22°C° 0 mm 1 m/s 712 mmHg 92%
    05:00 +22°C° 0 mm 1 m/s 712 mmHg 88%
    06:00 +23°C° 0 mm 1 m/s 713 mmHg 84%
    07:00 +24°C° 0 mm 1 m/s 713 mmHg 80%
    08:00 +26°C° 0 mm 2 m/s 714 mmHg 72%
    09:00 +28°C° 0 mm 2 m/s 714 mmHg 63%
    10:00 +30°C° 0 mm 2 m/s 714 mmHg 55%
    11:00 +31°C° 0 mm 3 m/s 713 mmHg 55%
    12:00 +31°C° 0 mm 3 m/s 712 mmHg 54%
    13:00 +31°C° 0 mm 3 m/s 711 mmHg 53%
    14:00 +31°C° 0.1 mm 3 m/s 711 mmHg 56%
    15:00 +30°C° 0.1 mm 3 m/s 710 mmHg 59%
    16:00 +29°C° 0.1 mm 3 m/s 710 mmHg 62%
    17:00 +28°C° 0 mm 2 m/s 710 mmHg 69%
    18:00 +26°C° 0 mm 2 m/s 710 mmHg 75%
    19:00 +25°C° 0 mm 2 m/s 711 mmHg 82%
    20:00 +24°C° 0 mm 2 m/s 711 mmHg 84%
    21:00 +24°C° 0 mm 2 m/s 711 mmHg 86%
    22:00 +23°C° 0 mm 2 m/s 712 mmHg 88%
    23:00 +23°C° 0 mm 2 m/s 712 mmHg 88%

    Poimâine, 20 Decembrie, Joi

    Timp Temperatura Precipitaţii Vânt Presiune Umiditate
    00:00 +23°C° 0 mm 2 m/s 711 mmHg 89%
    01:00 +23°C° 0 mm 2 m/s 711 mmHg 89%
    02:00 +21°C° 0 mm 2 m/s 711 mmHg 89%
    03:00 +22°C° 0 mm 1 m/s 711 mmHg 89%
    04:00 +22°C° 0 mm 1 m/s 711 mmHg 89%
    05:00 +23°C° 0 mm 2 m/s 711 mmHg 86%
    06:00 +23°C° 0 mm 2 m/s 712 mmHg 82%
    07:00 +24°C° 0 mm 2 m/s 713 mmHg 79%
    08:00 +26°C° 0 mm 2 m/s 713 mmHg 72%
    09:00 +28°C° 0 mm 2 m/s 714 mmHg 64%
    10:00 +30°C° 0 mm 3 m/s 714 mmHg 57%
    11:00 +30°C° 0 mm 3 m/s 713 mmHg 57%
    12:00 +30°C° 0 mm 3 m/s 712 mmHg 56%
    13:00 +31°C° 0 mm 3 m/s 712 mmHg 55%
    14:00 +30°C° 0 mm 3 m/s 711 mmHg 58%
    15:00 +30°C° 0 mm 3 m/s 711 mmHg 61%
    16:00 +29°C° 0 mm 3 m/s 710 mmHg 63%
    17:00 +27°C° 0 mm 2 m/s 710 mmHg 70%
    18:00 +26°C° 0 mm 2 m/s 711 mmHg 76%
    19:00 +25°C° 0 mm 2 m/s 711 mmHg 82%
    20:00 +24°C° 0 mm 2 m/s 711 mmHg 84%
    21:00 +24°C° 0 mm 2 m/s 711 mmHg 86%
    22:00 +24°C° 0 mm 2 m/s 712 mmHg 88%
    23:00 +23°C° 0 mm 2 m/s 711 mmHg 89%

    21 Decembrie, Vineri

    Timp Temperatura Precipitaţii Vânt Presiune Umiditate
    00:00 +23°C° 0 mm 2 m/s 711 mmHg 89%
    01:00 +23°C° 0 mm 2 m/s 711 mmHg 90%
    02:00 +23°C° 0 mm 2 m/s 711 mmHg 91%
    03:00 +23°C° 0 mm 1 m/s 711 mmHg 91%
    04:00 +22°C° 0 mm 1 m/s 710 mmHg 91%
    05:00 +23°C° 0 mm 1 m/s 711 mmHg 88%
    06:00 +23°C° 0 mm 1 m/s 712 mmHg 84%
    07:00 +24°C° 0 mm 1 m/s 712 mmHg 81%
    08:00 +26°C° 0 mm 1 m/s 713 mmHg 71%
    09:00 +28°C° 0 mm 2 m/s 713 mmHg 62%
    10:00 +30°C° 0 mm 2 m/s 713 mmHg 52%
    11:00 +31°C° 0 mm 2 m/s 713 mmHg 50%
    12:00 +31°C° 0 mm 3 m/s 712 mmHg 47%
    13:00 +33°C° 0 mm 3 m/s 711 mmHg 45%
    14:00 +31°C° 0 mm 3 m/s 711 mmHg 49%
    15:00 +31°C° 0 mm 3 m/s 710 mmHg 52%
    16:00 +30°C° 0 mm 3 m/s 710 mmHg 55%
    17:00 +28°C° 0 mm 3 m/s 710 mmHg 64%
    18:00 +26°C° 0 mm 2 m/s 710 mmHg 72%
    19:00 +24°C° 0 mm 2 m/s 711 mmHg 81%
    20:00 +24°C° 0 mm 2 m/s 711 mmHg 83%
    21:00 +24°C° 0 mm 2 m/s 711 mmHg 86%
    22:00 +23°C° 0 mm 2 m/s 712 mmHg 88%
    23:00 +23°C° 0 mm 2 m/s 711 mmHg 89%

    22 Decembrie, Sâmbătă

    Timp Temperatura Precipitaţii Vânt Presiune Umiditate
    00:00 +23°C° 0 mm 2 m/s 711 mmHg 90%
    01:00 +23°C° 0 mm 2 m/s 711 mmHg 91%
    02:00 +23°C° 0 mm 2 m/s 711 mmHg 91%
    03:00 +21°C° 0 mm 2 m/s 711 mmHg 92%
    04:00 +21°C° 0 mm 2 m/s 711 mmHg 92%
    05:00 +23°C° 0 mm 2 m/s 711 mmHg 89%
    06:00 +23°C° 0 mm 2 m/s 712 mmHg 86%
    07:00 +24°C° 0 mm 2 m/s 713 mmHg 83%
    08:00 +26°C° 0 mm 2 m/s 713 mmHg 73%
    09:00 +28°C° 0 mm 2 m/s 713 mmHg 64%
    10:00 +30°C° 0 mm 2 m/s 714 mmHg 55%
    11:00 +30°C° 0 mm 3 m/s 713 mmHg 50%
    12:00 +31°C° 0 mm 3 m/s 712 mmHg 45%
    13:00 +33°C° 0 mm 3 m/s 711 mmHg 40%
    14:00 +31°C° 0 mm 3 m/s 711 mmHg 42%
    15:00 +30°C° 0 mm 3 m/s 710 mmHg 45%
    16:00 +29°C° 0 mm 3 m/s 710 mmHg 47%
    17:00 +27°C° 0 mm 3 m/s 710 mmHg 55%
    18:00 +25°C° 0 mm 2 m/s 710 mmHg 63%
    19:00 +23°C° 0 mm 2 m/s 711 mmHg 71%
    20:00 +23°C° 0 mm 2 m/s 711 mmHg 75%
    21:00 +21°C° 0 mm 2 m/s 711 mmHg 79%
    22:00 +21°C° 0 mm 2 m/s 712 mmHg 84%
    23:00 +21°C° 0 mm 2 m/s 711 mmHg 86%

    23 Decembrie, Duminică

    Timp Temperatura Precipitaţii Vânt Presiune Umiditate
    00:00 +21°C° 0 mm 2 m/s 711 mmHg 88%
    01:00 +21°C° 0 mm 2 m/s 711 mmHg 90%
    02:00 +21°C° 0 mm 2 m/s 711 mmHg 90%
    03:00 +21°C° 0 mm 2 m/s 711 mmHg 90%
    04:00 +21°C° 0 mm 2 m/s 711 mmHg 91%
    05:00 +21°C° 0 mm 2 m/s 712 mmHg 88%
    06:00 +23°C° 0 mm 2 m/s 712 mmHg 84%
    07:00 +23°C° 0 mm 2 m/s 713 mmHg 81%
    08:00 +25°C° 0 mm 2 m/s 713 mmHg 71%
    09:00 +27°C° 0 mm 2 m/s 713 mmHg 61%
    10:00 +30°C° 0 mm 2 m/s 714 mmHg 51%
    11:00 +30°C° 0 mm 2 m/s 713 mmHg 49%
    12:00 +31°C° 0 mm 3 m/s 712 mmHg 47%
    13:00 +33°C° 0 mm 3 m/s 711 mmHg 45%
    14:00 +31°C° 0 mm 3 m/s 711 mmHg 48%
    15:00 +30°C° 0 mm 3 m/s 710 mmHg 52%
    16:00 +29°C° 0 mm 3 m/s 710 mmHg 55%
    17:00 +27°C° 0 mm 3 m/s 710 mmHg 64%
    18:00 +25°C° 0 mm 2 m/s 710 mmHg 73%
    19:00 +23°C° 0 mm 2 m/s 710 mmHg 81%
    20:00 +23°C° 0 mm 2 m/s 711 mmHg 84%
    21:00 +21°C° 0 mm 2 m/s 711 mmHg 87%
    22:00 +21°C° 0 mm 2 m/s 711 mmHg 90%
    23:00 +21°C° 0 mm 2 m/s 711 mmHg 90%
    Arată mai mult